This is the latest recevied weather packets stored in our database for station/object KB4RFE. If no packets are shown the sender has not sent any weather packets the latest 10 day(s).
| Time | Temp. | Humidity | Pressure | Rain* | Wind** | Luminosity | Snow |
|---|---|---|---|---|---|---|---|
| 1777991183 | 22.78° C | 61% | 1021 hPa | 0 mm | - | 648 W/m² | - |
| 1777990880 | 22.78° C | 59% | 1021.1 hPa | 0 mm | - | 631 W/m² | - |
| 1777990578 | 22.78° C | 59% | 1021.1 hPa | 0 mm | - | 612 W/m² | - |
| 1777989971 | 22.78° C | 60% | 1021.1 hPa | 0 mm | - | 586 W/m² | - |
| 1777989668 | 22.78° C | 61% | 1021.1 hPa | 0 mm | - | 159 W/m² | - |
| 1777989363 | 22.78° C | 62% | 1021 hPa | 0 mm | - | 546 W/m² | - |
| 1777989060 | 22.78° C | 59% | 1021 hPa | 0 mm | - | 525 W/m² | - |
| 1777988756 | 22.78° C | 59% | 1021.2 hPa | 0 mm | - | 502 W/m² | - |
| 1777988454 | 22.22° C | 60% | 1020.8 hPa | 0 mm | - | 482 W/m² | - |
| 1777988150 | 22.78° C | 61% | 1020.9 hPa | 0 mm | - | 460 W/m² | - |
| 1777987846 | 22.22° C | 63% | 1021 hPa | 0 mm | - | 439 W/m² | - |
| 1777987543 | 22.22° C | 65% | 1020.9 hPa | 0 mm | - | 419 W/m² | - |
| 1777987241 | 22.22° C | 64% | 1020.8 hPa | 0 mm | - | 400 W/m² | - |
| 1777986937 | 21.67° C | 62% | 1020.6 hPa | 0 mm | - | 381 W/m² | - |
| 1777986635 | 21.67° C | 63% | 1020.7 hPa | 0 mm | - | 361 W/m² | - |
| 1777986333 | 21.11° C | 65% | 1020.6 hPa | 0 mm | - | 336 W/m² | - |
| 1777986031 | 21.11° C | 64% | 1020.6 hPa | 0 mm | - | 255 W/m² | - |
| 1777985727 | 21.11° C | 65% | 1020.8 hPa | 0 mm | - | 80 W/m² | - |
| 1777985424 | 21.11° C | 66% | 1020.7 hPa | 0 mm | - | 53 W/m² | - |
| 1777985121 | 21.11° C | 64% | 1020.7 hPa | 0 mm | - | 53 W/m² | - |
| 1777984817 | 20.56° C | 67% | 1020.8 hPa | 0 mm | - | 52 W/m² | - |
| 1777984514 | 20.56° C | 67% | 1020.8 hPa | 0 mm | - | 48 W/m² | - |
| 1777984210 | 20.56° C | 69% | 1020.8 hPa | 0 mm | - | 47 W/m² | - |
| 1777983907 | 20° C | 74% | 1020.8 hPa | 0 mm | - | 45 W/m² | - |
| 1777983604 | 19.44° C | 75% | 1020.6 hPa | 0 mm | - | 44 W/m² | - |
* Rain latest hour (hover to see other rain measurements)
** Current wind speed in m/s (hover to see current wind gust speed)